DW7480 Oulu FI current weather conditions

sailwx.info

Wind from 254 at 0 knots gusting 3

Air temperature 16.1° C
Dewpoint 7.6° C

Last reported at 2018-Jun-21 15:54 UTC.
Time now 2018-Jun-21 16:31 UTC

Location: N 65°05' E 025°31'.
View on Google Maps.

See reports from other nearby stations

  
Tides and Currents Weather Stations Pressure Air Temp Water Temp Dewpoint Dewpoint Depression Visibility Wind Speed Wind Dir Waves Ship Positions
date/time (UTC)wind fromknots sea level pressurealtimeterstation pressurevisibilityair tempwater tempwave heightnotes
2018-Jun-21 15:54 254 0 gusting 3 16.1
2018-Jun-21 15:39 254 16.1
2018-Jun-21 15:24 215 1 gusting 4 16.7
2018-Jun-21 15:09 273 1 gusting 6 16.7
2018-Jun-21 14:54 291 1 gusting 6 16.7
2018-Jun-21 14:39 248 2 gusting 7 16.7
2018-Jun-21 14:24 219 0 gusting 6 17.2
2018-Jun-21 14:09 198 0 gusting 6 17.2
2018-Jun-21 13:54 261 0 gusting 6 16.7
2018-Jun-21 13:39 208 2 gusting 6 17.2
2018-Jun-21 13:24 223 0 gusting 6 17.2
2018-Jun-21 13:09 251 1 gusting 6 17.2
2018-Jun-21 12:54 225 1 gusting 8 16.7
2018-Jun-21 12:39 221 1 gusting 6 16.7
2018-Jun-21 12:24 172 1 gusting 9 16.7
2018-Jun-21 12:09 216 2 gusting 9 17.2
2018-Jun-21 11:54 191 2 gusting 7 17.2
2018-Jun-21 11:39 211 2 gusting 11 17.2
2018-Jun-21 11:24 228 3 gusting 9 16.7
2018-Jun-21 11:09 220 4 gusting 10 16.7
2018-Jun-21 10:54 288 3 gusting 14 17.2
2018-Jun-21 10:39 234 4 gusting 11 17.8
2018-Jun-21 10:24 234 3 gusting 9 17.2
2018-Jun-21 10:09 234 1 gusting 9 16.7
2018-Jun-21 09:54 211 1 gusting 5 16.7
2018-Jun-21 09:39 228 2 gusting 11 16.7
2018-Jun-21 09:24 224 3 gusting 8 16.7
2018-Jun-21 09:09 229 3 gusting 9 16.7
2018-Jun-21 08:53 165 1 gusting 8 16.7
2018-Jun-21 08:38 233 2 gusting 9 16.7
2018-Jun-21 08:23 213 1 gusting 6 16.1
2018-Jun-21 08:08 196 3 gusting 9 16.1
2018-Jun-21 07:53 196 3 gusting 7 16.1
2018-Jun-21 07:38 219 1 gusting 7 16.1
2018-Jun-21 07:23 211 1 gusting 6 15.6
2018-Jun-21 07:08 254 2 gusting 10 15.0
2018-Jun-21 06:53 199 1 gusting 10 15.0
2018-Jun-21 06:38 241 1 gusting 7 15.0
2018-Jun-21 06:23 190 0 gusting 8 15.0
2018-Jun-21 06:08 239 1 gusting 6 15.0
2018-Jun-21 05:53 259 2 gusting 10 15.0
2018-Jun-21 05:38 263 2 gusting 7 14.4
2018-Jun-21 05:23 228 2 gusting 11 14.4
2018-Jun-21 05:08 221 1 gusting 8 14.4
2018-Jun-21 04:53 256 0 gusting 5 14.4
2018-Jun-21 04:38 241 2 gusting 6 14.4
2018-Jun-21 04:23 207 1 gusting 7 13.9
2018-Jun-21 04:08 217 13.3
2018-Jun-21 03:52 209 2 gusting 7 12.8
2018-Jun-21 03:37 239 12.2
2018-Jun-21 03:22 236 1 gusting 6 11.7
2018-Jun-21 03:07 219 1 gusting 6 11.7
2018-Jun-21 02:52 227 2 gusting 5 11.1
2018-Jun-21 02:37 203 10.6
2018-Jun-21 02:22 242 0 gusting 6 10.6
2018-Jun-21 02:07 267 0 gusting 6 10.0
2018-Jun-21 01:52 213 10.0
2018-Jun-21 01:37 253 0 gusting 6 10.0
2018-Jun-21 01:22 207 9.4
2018-Jun-21 01:07 232 9.4
2018-Jun-21 00:52 229 9.4
2018-Jun-21 00:37 250 0 gusting 5 9.4
2018-Jun-21 00:22 297 0 gusting 4 10.0
2018-Jun-21 00:07 265 10.0
2018-Jun-20 23:52 257 1 gusting 7 10.6
2018-Jun-20 23:37 245 2 gusting 9 10.6
2018-Jun-20 23:22 229 2 gusting 7 10.6
2018-Jun-20 23:07 244 0 gusting 4 10.6
2018-Jun-20 22:52 244 0 gusting 5 10.6
2018-Jun-20 22:37 232 1 gusting 6 11.1
2018-Jun-20 22:22 266 1 gusting 6 11.1
2018-Jun-20 22:07 231 0 gusting 6 11.1
2018-Jun-20 21:52 231 1 gusting 9 11.7
2018-Jun-20 21:37 246 2 gusting 7 11.1
2018-Jun-20 21:22 247 1 gusting 6 11.1
2018-Jun-20 21:07 232 1 gusting 6 11.7
2018-Jun-20 20:52 217 0 gusting 9 11.7
2018-Jun-20 20:37 236 0 gusting 6 11.7
2018-Jun-20 20:22 241 1 gusting 10 12.2
2018-Jun-20 20:07 194 2 gusting 8 12.2
2018-Jun-20 19:52 244 1 gusting 8 12.2
2018-Jun-20 19:37 240 3 gusting 9 12.2
2018-Jun-20 19:22 205 2 gusting 8 12.8
2018-Jun-20 19:06 173 1 gusting 6 12.8
2018-Jun-20 18:52 242 0 gusting 7 13.3
2018-Jun-20 18:37 229 1 gusting 6 13.3
2018-Jun-20 18:21 238 13.3
2018-Jun-20 18:06 219 2 gusting 8 13.9
2018-Jun-20 17:52 214 4 gusting 13 13.9
2018-Jun-20 17:36 262 2 gusting 9 13.9
2018-Jun-20 17:22 221 3 gusting 13 13.9
2018-Jun-20 17:06 228 4 gusting 10 14.4
2018-Jun-20 16:51 234 2 gusting 14 14.4
2018-Jun-20 16:36 238 3 gusting 13 14.4
2018-Jun-20 16:21 233 4 gusting 11 14.4
2018-Jun-20 16:06 213 2 gusting 13 15.0
2018-Jun-20 15:51 246 3 gusting 13 15.6
2018-Jun-20 15:36 242 2 gusting 12 16.7
2018-Jun-20 15:21 220 5 gusting 14 17.2
2018-Jun-20 15:06 228 2 gusting 12 17.2
2018-Jun-20 14:51 242 3 gusting 11 17.2
2018-Jun-20 14:36 259 3 gusting 12 17.8
2018-Jun-20 14:21 234 1 gusting 12 17.2
2018-Jun-20 14:06 232 2 gusting 15 17.2
2018-Jun-20 13:51 217 4 gusting 13 17.2
2018-Jun-20 13:37 263 4 gusting 11 17.8
2018-Jun-20 13:21 201 4 gusting 11 18.3
2018-Jun-20 13:06 225 2 gusting 14 18.3
2018-Jun-20 12:51 237 3 gusting 16 18.3
2018-Jun-20 12:36 238 6 gusting 17 17.8
2018-Jun-20 12:21 247 1 gusting 16 17.8
2018-Jun-20 12:06 246 4 gusting 15 17.8
2018-Jun-20 11:51 215 5 gusting 17 17.8
2018-Jun-20 11:36 226 6 gusting 13 17.8
2018-Jun-20 11:21 218 6 gusting 22 17.8
2018-Jun-20 11:06 252 4 gusting 18 17.2
2018-Jun-20 10:51 239 6 gusting 15 17.2
2018-Jun-20 10:36 224 5 gusting 17 16.7
2018-Jun-20 10:21 209 5 gusting 14 16.7
2018-Jun-20 10:06 249 6 gusting 26 16.1
2018-Jun-20 09:51 242 6 gusting 18 16.1
2018-Jun-20 09:36 213 3 gusting 19 16.1
2018-Jun-20 09:21 254 6 gusting 20 15.6
2018-Jun-20 09:06 225 5 gusting 21 15.6
2018-Jun-20 08:51 235 6 gusting 17 15.6
2018-Jun-20 08:36 230 6 gusting 22 15.0
2018-Jun-20 08:21 235 9 gusting 17 15.0
2018-Jun-20 08:05 185 4 gusting 18 15.0
2018-Jun-20 07:50 229 6 gusting 16 14.4
2018-Jun-20 07:35 237 4 gusting 13 14.4
2018-Jun-20 07:20 244 4 gusting 13 13.9
2018-Jun-20 07:05 262 5 gusting 16 13.9
2018-Jun-20 06:50 271 3 gusting 13 13.3
2018-Jun-20 06:35 270 5 gusting 19 13.3
2018-Jun-20 06:20 284 5 gusting 15 13.3
2018-Jun-20 06:05 227 4 gusting 14 13.3
2018-Jun-20 05:50 268 5 gusting 19 13.3
2018-Jun-20 05:35 234 3 gusting 16 12.8
2018-Jun-20 05:20 254 5 gusting 18 12.8
2018-Jun-20 05:05 219 5 gusting 16 12.8
2018-Jun-20 04:50 251 2 gusting 15 12.8
2018-Jun-20 04:35 254 3 gusting 14 12.2
2018-Jun-20 04:20 259 2 gusting 14 12.2
2018-Jun-20 04:05 255 6 gusting 18 11.7
2018-Jun-20 03:49 257 6 gusting 19 11.7
2018-Jun-20 03:34 283 3 gusting 13 11.1
2018-Jun-20 03:19 243 6 gusting 15 11.1
2018-Jun-20 03:04 212 4 gusting 13 11.1
2018-Jun-20 02:49 232 5 gusting 15 11.1
2018-Jun-20 02:34 281 4 gusting 12 10.6
2018-Jun-20 02:19 234 2 gusting 13 11.1
2018-Jun-20 02:04 227 4 gusting 13 11.1
2018-Jun-20 01:49 234 4 gusting 16 11.1
2018-Jun-20 01:34 260 3 gusting 14 10.6
2018-Jun-20 01:19 290 3 gusting 13 10.6
2018-Jun-20 01:04 231 6 gusting 16 10.0
2018-Jun-20 00:49 265 5 gusting 15 10.0
2018-Jun-20 00:34 249 6 gusting 16 10.6
2018-Jun-20 00:19 223 5 gusting 20 10.0
2018-Jun-20 00:04 233 5 gusting 13 10.0
2018-Jun-19 23:49 279 5 gusting 19 10.0
2018-Jun-19 23:34 286 5 gusting 11 10.0
2018-Jun-19 23:19 227 4 gusting 17 10.0
2018-Jun-19 23:04 232 3 gusting 13 10.0
2018-Jun-19 22:49 263 2 gusting 12 10.0
2018-Jun-19 22:34 268 4 gusting 13 10.0
2018-Jun-19 22:19 280 3 gusting 18 10.0
2018-Jun-19 22:04 255 6 gusting 14 10.0
2018-Jun-19 21:49 214 5 gusting 19 10.0
2018-Jun-19 21:33 240 3 gusting 13 10.0
2018-Jun-19 21:19 283 0 gusting 12 10.6
2018-Jun-19 21:03 240 1 gusting 6 10.6
2018-Jun-19 20:48 230 0 gusting 4 10.6
2018-Jun-19 20:33 234 10.0
2018-Jun-19 20:18 234 10.6
2018-Jun-19 20:03 244 0 gusting 3 10.6
2018-Jun-19 19:48 236 0 gusting 2 10.6
2018-Jun-19 19:33 227 10.6
2018-Jun-19 19:18 194 11.1
2018-Jun-19 19:03 182 0 gusting 5 11.1
2018-Jun-19 18:48 184 11.1
2018-Jun-19 18:33 150 11.7
2018-Jun-19 18:18 204 0 gusting 4 12.2
2018-Jun-19 18:03 178 12.2
2018-Jun-19 17:48 138 2 gusting 7 12.2
2018-Jun-19 17:33 110 2 gusting 6 12.2
2018-Jun-19 17:18 138 3 gusting 6 12.2
2018-Jun-19 17:03 086 2 gusting 9 12.2
2018-Jun-19 16:48 138 2 gusting 9 12.2
2018-Jun-19 16:33 139 1 gusting 8 12.8
2018-Jun-19 16:18 157 2 gusting 8 12.8
2018-Jun-19 16:03 184 1 gusting 6 12.8